Wind_Speed
8 7 13 20 16 5 7 6 7 4 4 2 10 8 15 10 8 12 15 17 19 19 16 17 15 12 12 13 14 14 14 17 20 25 32 33 34 27 43 36 38 37 35 25
4 14 16 10 10 13 8 7 10 12 4 8 10 13 15 9 8 11 12 18 19 19 20 21 19 15 15 15 17 18 16 17 23 28 33 36 37 32 42 37 38 33 34 31
17 6 11 13 10 14 16 18 14 13 6 4 6 9 6 3 5 8 11 13 18 24 26 25 23 19 16 19 19 20 20 20 24 29 33 32 34 35 35 36 42 38 36 34
12 14 9 11 15 15 14 10 13 13 5 7 2 8 6 8 13 7 11 13 16 23 27 25 25 21 19 18 18 23 22 22 24 29 34 33 34 37 39 38 45 41 39 36
9 9 20 7 12 14 12 8 12 11 9 6 9 6 2 3 9 14 10 12 16 24 29 31 28 22 18 18 20 26 26 25 26 30 35 32 29 30 32 40 41 40 43 40
7 3 8 15 6 18 5 4 2 2 2 6 10 7 7 6 12 7 5 7 10 21 28 29 26 24 21 21 22 22 29 30 30 29 35 37 34 33 38 41 41 44 41 38
10 7 3 4 12 6 6 4 3 2 4 7 2 8 11 9 13 10 11 16 11 13 26 31 32 31 28 25 25 25 28 31 31 31 32 33 36 38 39 41 42 44 47 44
12 8 15 9 6 7 13 13 5 7 5 2 4 5 5 7 11 13 12 17 15 12 21 31 35 33 31 28 28 28 29 31 32 32 34 35 37 40 43 43 44 44 46 44
8 8 5 7 7 11 6 9 11 1 1 2 3 4 10 9 9 7 9 9 9 10 18 28 34 33 33 32 31 31 30 30 32 33 34 37 41 42 45 45 45 45 47 48
2 2 4 9 6 6 8 10 5 3 6 9 5 4 6 4 8 5 7 6 10 4 10 20 29 32 32 34 32 31 31 30 30 33 34 36 39 42 43 45 49 51 52 52
1 1 1 5 5 11 7 7 2 4 4 6 5 4 7 12 9 6 7 10 9 6 7 15 21 27 29 32 34 35 34 33 34 34 36 37 38 40 42 43 44 46 47 49
5 2 3 5 2 3 2 8 10 6 5 2 2 7 4 10 8 7 10 12 12 10 5 11 15 19 24 29 32 35 37 38 36 35 36 39 40 40 39 38 37 39 40 40
6 2 2 2 2 4 3 2 4 3 2 15 9 4 4 5 8 13 12 15 15 13 10 8 14 18 21 24 28 32 35 37 39 40 37 39 42 43 44 44 44 43 41 40
1 2 3 1 2 3 5 10 10 6 5 7 11 9 9 11 7 12 13 19 20 16 12 10 12 17 19 20 23 26 27 31 34 39 43 42 41 41 42 42 47 47 43 41
2 5 5 6 11 7 8 7 10 10 10 10 6 13 9 13 13 16 19 26 26 25 16 16 15 17 21 21 22 23 24 27 29 32 38 42 42 41 42 41 43 45 42 46
7 1 5 5 10 11 8 10 17 15 10 13 12 14 12 19 18 13 23 24 23 27 27 23 24 21 23 25 25 25 23 24 25 29 31 33 36 40 42 41 42 42 42 42
5 2 2 3 5 7 6 9 8 2 5 4 6 9 10 13 12 13 23 24 26 25 25 27 24 25 20 25 27 27 26 25 25 25 26 28 30 34 37 39 40 42 41 40
5 3 2 1 2 7 3 4 5 6 9 9 7 9 12 17 23 27 28 19 19 23 25 28 28 26 27 27 29 31 31 28 28 28 27 27 28 30 32 35 36 38 38 39
13 5 2 3 6 8 9 7 4 6 8 7 4 10 14 19 15 18 21 20 23 22 18 15 16 17 22 28 31 34 32 33 33 32 31 28 27 28 30 30 30 31 29 28
13 10 3 3 3 5 3 2 3 1 6 5 5 7 10 18 8 7 25 24 21 20 22 20 17 16 17 21 26 31 33 38 35 34 32 30 29 28 27 25 21 20 22 25
6 3 9 4 4 6 9 8 3 2 5 8 4 9 4 3 6 13 23 19 16 15 16 18 18 16 15 15 18 22 29 35 34 33 30 27 25 23 20 17 18 21 23 24
7 6 5 5 4 8 0 2 1 7 9 12 22 19 12 18 19 14 15 23 29 27 15 12 15 13 12 12 14 18 25 28 27 23 20 18 16 15 15 16 18 18 19 19
4 6 4 8 6 2 3 6 14 17 20 22 26 35 29 27 27 28 19 22 23 27 22 15 11 7 3 4 8 15 18 19 16 15 14 12 14 13 13 14 17 21 21 19
3 4 3 0 3 7 9 10 12 21 21 25 27 28 30 26 29 30 22 18 16 17 23 15 10 6 3 6 8 9 12 13 13 14 16 16 15 13 14 14 13 15 18 21
2 3 3 5 7 14 11 13 22 25 23 24 28 20 19 18 21 17 15 11 10 11 13 12 9 7 4 3 5 8 10 11 10 12 13 12 9 11 11 12 13 13 14 17
3 3 3 5 2 4 10 19 16 21 20 20 22 17 9 8 12 12 7 6 8 6 12 8 9 8 1 6 8 10 11 10 12 14 12 10 9 13 12 14 16 16 12 13
Wind_Direction
190 189 203 205 199 191 202 227 237 238 210 254 264 268 282 288 229 243 234 209 204 219 224 222 221 212 202 197 191 190 200 205 200 189 181 183 183 178 169 175 174 172 165 174
155 217 220 173 192 216 216 224 242 288 274 226 277 291 293 271 252 248 241 225 207 209 217 212 215 217 200 195 191 191 192 194 188 188 188 189 188 190 181 179 176 185 185 191
209 198 192 186 192 209 229 232 243 255 331 254 274 276 263 295 264 258 249 237 218 210 211 209 211 216 208 194 194 192 188 189 193 193 193 196 196 196 197 201 187 190 189 196
220 222 179 201 203 198 234 217 237 255 274 275 336 289 274 274 273 247 256 224 213 212 213 212 207 212 215 195 193 193 188 185 189 200 196 195 199 200 202 192 184 185 190 186
208 201 212 195 215 183 235 172 208 238 247 281 245 262 259 284 263 266 261 241 218 213 210 208 207 207 211 202 191 194 193 188 188 196 200 194 187 178 175 180 187 188 195 201
203 195 192 215 188 183 204 132 109 97 203 245 235 222 274 232 239 256 258 256 238 213 210 211 206 204 204 205 198 193 196 192 191 196 204 207 196 192 188 185 192 196 197 198
213 213 193 158 192 191 207 148 244 230 212 241 223 197 260 256 250 253 270 287 265 218 207 204 201 200 201 206 204 197 193 192 195 199 201 201 204 203 199 197 197 198 202 208
200 208 192 185 182 185 200 196 191 223 220 232 131 220 238 264 278 265 266 282 274 235 213 211 204 202 202 203 208 204 199 197 197 198 198 196 196 199 201 203 206 206 209 212
181 227 188 206 185 162 176 198 214 242 89 311 221 253 281 284 288 293 284 291 287 245 223 215 208 205 206 205 208 209 205 204 202 201 200 200 203 205 208 212 212 215 217 220
199 206 180 194 178 197 191 158 163 209 232 244 210 232 225 280 289 311 340 338 321 279 217 211 212 205 209 211 211 210 214 214 210 207 207 207 207 209 212 214 216 221 224 226
173 95 221 144 183 186 187 213 171 192 200 249 262 233 218 236 252 253 296 324 323 330 236 217 215 213 210 213 215 215 214 214 217 216 215 214 215 215 217 220 223 225 227 228
1 131 237 248 227 112 173 218 223 225 211 240 276 240 249 234 240 237 279 309 344 319 293 229 223 221 218 219 219 221 220 218 220 222 222 222 220 221 222 224 225 228 229 233
346 25 159 344 355 28 72 286 228 203 226 249 251 253 327 272 262 260 272 292 307 314 297 243 226 225 224 226 227 225 226 226 225 224 224 227 228 227 226 227 228 229 230 231
252 59 32 188 59 348 307 319 309 279 254 257 244 263 278 289 283 274 263 271 285 293 278 250 236 232 232 231 234 233 231 229 231 232 231 231 230 232 233 232 237 235 233 237
297 210 173 266 293 281 268 283 302 280 259 250 255 257 248 248 248 245 263 276 282 283 259 248 253 244 234 230 231 239 240 232 228 230 234 238 236 235 237 238 239 244 239 239
354 282 186 226 225 248 267 281 289 266 261 267 264 266 249 257 265 264 268 271 268 266 270 266 250 257 241 234 231 231 240 240 231 229 232 237 239 238 239 238 240 244 244 245
309 330 161 229 226 242 270 245 221 232 228 235 296 305 288 281 271 253 261 268 272 277 268 270 263 252 257 248 238 232 230 235 233 229 232 232 234 237 239 242 244 245 246 249
250 330 307 216 288 235 258 247 215 239 263 244 259 312 304 282 272 276 277 266 280 278 277 273 267 255 255 257 255 244 234 230 232 233 231 232 233 234 238 240 242 246 249 251
205 199 254 224 216 303 293 265 218 207 289 21 357 358 346 325 278 275 285 292 279 275 272 282 280 271 263 254 246 250 243 231 231 232 232 233 235 235 235 238 242 245 250 254
181 191 192 199 203 237 250 125 18 53 263 8 343 314 325 2 34 335 327 320 308 283 283 285 285 290 280 256 249 245 240 231 229 232 233 231 232 236 238 240 245 253 254 254
171 178 215 231 260 276 259 291 348 192 319 306 270 283 291 338 313 330 11 3 333 313 295 298 290 280 273 262 255 245 231 226 226 227 231 233 234 234 237 241 247 247 248 253
176 195 189 210 241 267 36 144 344 333 293 282 316 309 302 315 313 330 350 353 360 2 334 307 290 278 267 249 234 221 220 224 222 224 223 224 227 227 224 229 231 235 235 242
195 201 191 197 205 301 34 5 317 313 299 305 307 302 300 302 307 308 317 311 332 356 357 344 347 296 209 211 232 216 214 215 210 213 201 199 197 206 219 236 238 235 228 236
242 183 226 317 252 263 289 317 9 332 319 314 311 301 297 295 300 317 315 327 343 342 355 354 355 4 342 150 164 172 183 182 174 187 187 182 189 203 222 229 232 232 230 230
222 156 232 262 289 325 292 357 352 337 337 331 326 318 313 314 305 308 305 324 342 2 9 4 359 25 72 98 143 158 161 166 140 191 187 185 192 202 204 212 218 219 218 219
198 228 240 282 23 313 305 326 334 340 338 341 342 347 347 345 330 327 323 331 315 334 359 360 14 33 207 130 147 162 161 156 169 180 177 174 190 200 197 196 180 169 177 179
Height
1467 1468 1467 1461 1465 1469 1470 1474 1471 1466 1467 1468 1463 1465 1457 1456 1456 1455 1456 1459 1461 1463 1467 1467 1469 1470 1471 1472 1475 1477 1480 1482 1486 1490 1494 1499 1503 1507 1515 1523 1529 1533 1537 1544
1466 1461 1457 1464 1467 1468 1469 1470 1468 1463 1465 1467 1460 1456 1451 1450 1449 1447 1449 1451 1455 1458 1461 1463 1464 1466 1469 1471 1473 1476 1478 1480 1483 1488 1493 1498 1502 1508 1515 1521 1528 1533 1538 1545
1453 1452 1456 1460 1465 1468 1465 1465 1465 1466 1465 1462 1461 1453 1447 1443 1445 1443 1444 1444 1447 1450 1454 1457 1460 1462 1465 1468 1470 1473 1475 1478 1482 1485 1491 1497 1502 1507 1512 1516 1524 1530 1538 1542
1452 1451 1452 1454 1457 1461 1465 1460 1463 1464 1470 1468 1461 1457 1450 1443 1438 1439 1437 1438 1440 1444 1450 1453 1455 1457 1460 1464 1467 1470 1473 1477 1481 1485 1488 1493 1497 1502 1506 1513 1521 1527 1534 1539
1446 1445 1448 1453 1451 1456 1455 1456 1458 1460 1465 1467 1459 1465 1447 1446 1436 1429 1429 1430 1432 1436 1442 1444 1448 1452 1456 1460 1463 1467 1471 1474 1479 1483 1487 1492 1496 1499 1504 1513 1520 1526 1531 1536
1442 1439 1441 1443 1447 1449 1448 1455 1458 1463 1465 1468 1454 1457 1440 1438 1430 1423 1424 1426 1427 1430 1435 1440 1446 1449 1452 1456 1459 1462 1466 1470 1475 1480 1484 1489 1494 1498 1502 1509 1515 1521 1527 1531
1442 1438 1436 1438 1446 1450 1450 1455 1465 1469 1469 1457 1448 1454 1435 1426 1423 1422 1421 1421 1422 1424 1429 1433 1438 1441 1446 1450 1454 1458 1462 1466 1470 1475 1480 1484 1490 1496 1501 1507 1511 1517 1522 1526
1436 1444 1434 1433 1435 1441 1446 1450 1455 1460 1459 1448 1451 1446 1430 1420 1420 1420 1420 1418 1417 1418 1422 1425 1428 1434 1439 1444 1449 1453 1457 1462 1466 1470 1474 1480 1485 1491 1497 1502 1506 1511 1516 1520
1430 1433 1424 1427 1427 1431 1445 1449 1442 1452 1458 1455 1441 1433 1422 1414 1414 1415 1415 1411 1412 1412 1414 1418 1422 1427 1434 1438 1442 1447 1451 1456 1461 1466 1471 1474 1479 1485 1490 1496 1501 1506 1510 1515
1421 1428 1420 1423 1427 1429 1430 1433 1448 1452 1454 1451 1438 1438 1426 1418 1411 1413 1410 1407 1409 1408 1409 1413 1418 1419 1427 1433 1438 1443 1448 1451 1456 1460 1465 1469 1473 1477 1483 1488 1492 1496 1502 1506
1420 1422 1425 1422 1424 1426 1432 1433 1433 1433 1438 1435 1437 1431 1417 1411 1409 1410 1410 1406 1405 1406 1407 1410 1414 1418 1419 1427 1432 1437 1442 1446 1450 1453 1457 1461 1465 1470 1475 1479 1483 1487 1492 1495
1428 1429 1431 1426 1421 1421 1422 1425 1427 1435 1437 1441 1438 1424 1408 1407 1406 1408 1407 1405 1403 1404 1405 1407 1409 1413 1415 1419 1423 1428 1433 1438 1442 1447 1452 1455 1459 1463 1466 1469 1473 1478 1482 1487
1429 1431 1433 1428 1425 1422 1426 1427 1424 1428 1432 1428 1437 1424 1409 1409 1407 1405 1404 1402 1403 1403 1403 1404 1406 1407 1410 1413 1416 1419 1423 1428 1434 1440 1444 1447 1451 1455 1458 1462 1466 1470 1474 1477
1429 1432 1436 1432 1436 1436 1436 1432 1429 1429 1430 1424 1420 1420 1415 1409 1407 1402 1401 1399 1399 1400 1401 1402 1401 1403 1405 1407 1409 1412 1415 1420 1425 1430 1435 1438 1442 1446 1449 1455 1457 1461 1467 1471
1428 1430 1433 1437 1431 1431 1433 1432 1428 1428 1424 1424 1417 1414 1412 1407 1402 1398 1397 1397 1396 1396 1396 1397 1398 1399 1400 1402 1404 1406 1409 1413 1416 1419 1424 1426 1432 1437 1441 1446 1449 1453 1459 1463
1435 1431 1431 1433 1427 1424 1427 1425 1420 1417 1415 1411 1411 1410 1406 1401 1398 1397 1393 1392 1390 1389 1389 1390 1391 1393 1393 1395 1398 1400 1404 1406 1410 1413 1414 1419 1424 1428 1430 1436 1440 1444 1448 1452
1439 1433 1435 1430 1428 1428 1428 1416 1412 1408 1407 1407 1409 1404 1401 1397 1393 1391 1388 1386 1385 1383 1382 1384 1384 1385 1387 1389 1392 1394 1397 1400 1403 1405 1408 1412 1416 1420 1423 1426 1431 1434 1438 1442
1438 1439 1438 1436 1437 1431 1408 1404 1405 1408 1403 1399 1398 1399 1397 1393 1388 1385 1384 1381 1378 1379 1378 1377 1377 1377 1378 1381 1383 1386 1389 1393 1397 1399 1402 1406 1409 1413 1417 1420 1422 1425 1429 1433
1436 1439 1437 1433 1429 1414 1405 1402 1403 1404 1402 1403 1401 1398 1394 1386 1380 1379 1381 1379 1376 1373 1374 1372 1372 1371 1370 1371 1374 1377 1381 1385 1388 1391 1394 1398 1403 1407 1410 1414 1417 1420 1423 1427
1430 1433 1437 1437 1427 1420 1401 1401 1401 1401 1404 1401 1401 1397 1393 1387 1384 1382 1377 1375 1372 1371 1368 1366 1365 1364 1362 1362 1365 1368 1371 1375 1378 1382 1387 1391 1395 1399 1404 1407 1412 1416 1418 1420
1428 1430 1429 1430 1429 1411 1403 1400 1401 1407 1404 1397 1396 1392 1389 1389 1390 1382 1376 1372 1370 1365 1362 1360 1359 1357 1356 1355 1356 1360 1364 1368 1373 1375 1379 1385 1390 1394 1398 1403 1406 1409 1412 1414
1416 1420 1422 1426 1425 1417 1400 1401 1403 1403 1398 1397 1392 1390 1387 1385 1383 1380 1374 1371 1368 1363 1358 1356 1354 1352 1352 1350 1350 1353 1358 1364 1367 1373 1376 1380 1386 1391 1394 1398 1401 1403 1406 1408
1413 1410 1407 1409 1405 1400 1401 1402 1402 1400 1396 1395 1393 1385 1384 1381 1379 1375 1371 1371 1367 1364 1358 1355 1352 1350 1348 1347 1349 1350 1354 1360 1364 1370 1372 1376 1381 1386 1391 1395 1397 1399 1401 1404
1407 1405 1405 1406 1399 1398 1399 1400 1401 1398 1394 1390 1387 1382 1378 1377 1374 1371 1370 1367 1366 1361 1360 1357 1354 1352 1351 1349 1349 1351 1355 1358 1361 1369 1372 1372 1376 1380 1386 1390 1393 1395 1398 1399
1403 1403 1401 1400 1397 1396 1395 1397 1397 1393 1391 1386 1381 1377 1374 1371 1370 1369 1369 1364 1363 1361 1359 1360 1358 1353 1352 1354 1354 1355 1355 1359 1355 1370 1372 1374 1375 1380 1383 1386 1390 1393 1396 1400
1401 1401 1401 1397 1406 1406 1402 1400 1398 1395 1390 1386 1381 1376 1373 1368 1370 1368 1364 1361 1361 1361 1355 1359 1356 1353 1359 1354 1356 1359 1359 1359 1363 1369 1371 1372 1376 1381 1381 1383 1386 1392 1395 1399